{"data":{"norad_id":55655,"epoch":"2026-05-24T22:36:21.691872Z","epoch_age_seconds":76103,"freshness":"FRESH","line1":"1 55655U 23021AD  26144.94191773  .00000523  00000+0  51619-4 0  9997","line2":"2 55655  69.9994 332.3067 0002943 268.1427  91.9395 14.98329640180692","mean_motion":14.9832964,"eccentricity":0.0002943,"inclination_deg":69.9994,"raan_deg":332.3067,"arg_perigee_deg":268.1427,"mean_anomaly_deg":91.9395,"bstar":5.1619e-5,"rev_number":18069,"period_min":96.107022217087,"perigee_km":570.0115621195,"apogee_km":574.10244631038,"semimajor_km":6950.1940042149,"source":"CELESTRAK","updated_at":"2026-05-25T13:38:17.872313Z"}}